sat.trackr.live / text

‹ back to catalog

SBIRS GEO-1 (USA 230)

NORAD 37481 · 2011-019A

PAYLOAD ACTIVE UNKNOWN

§ Identity

Operator
Country
US
Launch date
2011-05-07
Launch site
AFETR
Launch vehicle
Mass (kg)
RCS (m²)
19.95

Purposes: comms

External: N2YO · Heavens-Above · Gunter

§ Orbital elements

Epoch: 2026-09-19T17:24:38.481696Z

Period
1,436.09 min
Inclination
4.7427°
Eccentricity
0.0001786
Mean motion
1.00272473 rev/d
Perigee alt
35,778.9 km
Apogee alt
35,793.9 km
Semi-major
42,164.5 km
B*
0.0000e+0
RAAN
52.9828°
Arg perigee
131.6484°
Mean anomaly
126.9763°
Rev number
5,634

§ Raw data

SBIRS GEO-1 (USA 230)1 37481U 11019A   26262.72544539  .00000097  00000+0  00000+0 0  99962 37481   4.7427  52.9828 0001786 131.6484 126.9763  1.00272473 56340

JSON: /api/v1/satellites/37481 · /tle

For live sub-satellite position, see the globe view (requires WebGL).

§ Visibility from observer

Set your observer location to see the next 7 days of passes ≥ 10°. The values pass through the URL so the page stays shareable.

No JS? Fill the form by hand. The geolocation button needs JavaScript.